Regional Weather Roundup
Issued by NWS

Home | Current Version | Previous Version | Text Only | Print | Product List | Glossary Off
Versions: 1 2 3 4 5 6 7 8 9 10 11 12 13 14 15 16 17 18 19 20 21 22 23 24 25 26 27 28 29 30 31 32 33 34 35 36 37 38 39 40 41 42 43 44 45 46 47 48 49 50

000
ASUS45 KBOI 010310
RWRID

IDAHO REGIONAL WEATHER ROUNDUP
NATIONAL WEATHER SERVICE BOISE ID
900 PM MDT TUE JUN 30 2015

NOTE: "FAIR" INDICATES FEW OR NO CLOUDS BELOW 12000 FEET
WITH NO SIGNIFICANT WEATHER AND/OR OBSTRUCTIONS TO VISIBILITY

IDZ012-014-010400-
SOUTHWEST IDAHO


CITY           SKY/WX    TMP DP  RH WIND       PRES   REMARKS
BOISE          MOCLDY    96  43  16 NW5       29.89R HX  92
CALDWELL       MOCLDY    97  52  21 NW6       29.88R HX  94
MOUNTAIN HOME  CLOUDY    97  41  14 NW13      29.89S HX  93
$$

IDZ016-017-010400-
SOUTHCENTRAL IDAHO


CITY           SKY/WX    TMP DP  RH WIND       PRES   REMARKS
BURLEY         CLOUDY    83  58  42 SW10      29.98S
JEROME         PTCLDY    84  50  30 W8        29.99R
TWIN FALLS     MOCLDY    91  49  23 W10       29.98R
$$

IDZ019>023-010400-
SOUTHEAST IDAHO


CITY           SKY/WX    TMP DP  RH WIND       PRES   REMARKS
IDAHO FALLS    MOCLDY    73  68  84 N5        30.06R
POCATELLO      CLEAR     84  54  35 E3        30.02S
REXBURG        PTCLDY    77  58  51 SW3       30.07R
$$

IDZ006-010-011-018-031-032-010400-
CENTRAL IDAHO MOUNTAINS


CITY           SKY/WX    TMP DP  RH WIND       PRES   REMARKS
MCCALL         CLEAR     81  52  36 NW7       30.10R
HAILEY         PTCLDY    81  48  32 W6        30.08R
STANLEY          N/A     79  43  27 CALM      30.21R
SALMON         CLEAR     82  52  34 N6        29.96R
CHALLIS        CLEAR     86  36  16 NW10      30.04R
$$

IDZ002-004-006-007-026-010400-
NORTHERN IDAHO


CITY           SKY/WX    TMP DP  RH WIND       PRES   REMARKS
LEWISTON       CLEAR     94  46  19 NW9       29.88R HX  90
LOWELL           N/A     79  60  52 N5        29.90R
COEUR D`ALENE  CLEAR     88  48  25 N3        29.93S
MULLAN PASS    CLEAR     70  45  40 NW6       30.21S
$$



USA.gov is the U.S. government's official web portal to all federal, state and local government web resources and services.